Flag for U.S.A. Weather past 2 weeks in Pocatello, Idaho, U.S.A.

Now
66 °F

Passing clouds.


Feels Like: 66 °F
Forecast: 61 / 85 °F
Wind: 7 mph from Southwest

Location: Pocatello Regional Airport

Current Time: Jul 6, 2015 at 6:32:39 AM

Latest Report: Jul 6, 2015 at 5:53 AM


Visibility: 10 mi

Pressure: 29.98 "Hg (25.57 "Hg at 1357m altitude)

Humidity: 65%

Dew point: 54 °F

Location of PocatelloLocation

Historic Weather in Pocatello — Graph

°F

Pocatello temperature yesterday

Maximum temperature yesterday: 84 °F (at 2:53 PM)
Minimum temperature yesterday: 69 °F (at 10:53 AM)
Average temperature yesterday: 77 °F

Past Weeks' High & Low Weather Summary

 TemperatureHumidityPressure
High101 °F (Jun 28, 5:53 PM)90% (Jun 27, 5:53 AM)30.13 "Hg (Jun 27, 5:53 AM)
Low49 °F (Jun 21, 5:53 AM)12% (Jul 4, 2:53 PM)29.67 "Hg (Jul 4, 7:53 PM)
Average77 °F39%29.90 "Hg
* Reported Jun 21 4:53 AM — Jul 6 4:53 AM, Pocatello, Weather by CustomWeather, © 2015

Note: Actual official high and low records may vary slightly from our data, if they occured in-between our weather recording intervals... More about our weather records

Advertising

Pocatello weather history for previous 24 hours

 ConditionsComfort  
Time TempWeatherWind HumidityBarometerVisibility
4:53 AM
Mon, Jul 6
66 °FPassing clouds.12 mph65%29.97 "Hg10 mi
3:53 AM68 °FOvercast.9 mph57%29.95 "Hg10 mi
2:53 AM69 °FOvercast.12 mph51%29.95 "Hg10 mi
1:53 AM69 °FOvercast.9 mph51%29.95 "Hg10 mi
12:53 AM71 °FOvercast.5 mph45%29.93 "Hg10 mi
11:53 PM
Sun, Jul 5
71 °FClear.12 mph47%29.91 "Hg10 mi
10:53 PM73 °FSunny.12 mph43%29.91 "Hg10 mi
9:53 PM71 °FSunny.12 mph49%29.88 "Hg10 mi
8:53 PM75 °FPartly sunny.12 mph47%29.87 "Hg10 mi
7:53 PM78 °FScattered clouds.16 mph45%29.85 "Hg10 mi
6:53 PM80 °FSunny.20 mph42%29.83 "Hg10 mi
5:53 PM82 °FPartly sunny.15 mph35%29.83 "Hg10 mi
4:53 PM83 °FPassing clouds.14 mph34%29.83 "Hg10 mi
3:53 PM84 °FPassing clouds.13 mph32%29.83 "Hg10 mi
2:53 PM84 °FPassing clouds.15 mph32%29.85 "Hg10 mi
1:53 PM80 °FScattered clouds.13 mph34%29.87 "Hg10 mi
12:53 PM78 °FPartly sunny.12 mph36%29.88 "Hg10 mi
11:53 AM77 °FPartly sunny.16 mph42%29.88 "Hg10 mi
10:53 AM69 °FLight rain. Overcast.14 mph68%29.90 "Hg10 mi
9:53 AM76 °FPartly sunny.12 mph43%29.86 "Hg10 mi
8:53 AM75 °FPartly sunny.14 mph40%29.82 "Hg10 mi
7:53 AM75 °FOvercast.10 mph43%29.80 "Hg10 mi
6:53 AM74 °FClear.13 mph43%29.79 "Hg10 mi
Weather by CustomWeather, © 2015

See weather overviewHow to use our weather pages